| time (UTC) | temp F | wind direction | speed MPH | gust MPH | rain 1hr in | rain 24hr in | rain mn in | humidity % | barometer mb |
| 20260507171601 | 55 | 245 | 0.0 | 0.0 | 0.00 | 0.06 | 0.00 | 49 | 1008.9 |
| 20260507170058 | 55 | 262 | 0.0 | 0.0 | 0.00 | 0.06 | 0.00 | 50 | 1008.9 |
| 20260507164558 | 55 | 265 | 0.0 | 0.0 | 0.00 | 0.06 | 0.00 | 48 | 1009.3 |
| 20260507163054 | 54 | 252 | 0.0 | 0.0 | 0.00 | 0.06 | 0.00 | 50 | 1009.2 |
| 20260507161601 | 54 | 282 | 0.0 | 0.0 | 0.00 | 0.06 | 0.00 | 48 | 1009.4 |
| 20260507160100 | 54 | 57 | 0.0 | 0.0 | 0.00 | 0.06 | 0.00 | 52 | 1009.9 |
| 20260507154550 | 54 | 234 | 0.0 | 0.0 | 0.00 | 0.10 | 0.00 | 48 | 1010.0 |
| 20260507153054 | 52 | 230 | 0.0 | 0.0 | 0.00 | 0.10 | 0.00 | 57 | 1010.1 |
| 20260507151548 | 53 | 275 | 0.0 | 0.0 | 0.00 | 0.10 | 0.00 | 54 | 1010.4 |
| 20260507150045 | 53 | 10 | 0.0 | 0.0 | 0.00 | 0.10 | 0.00 | 56 | 1010.6 |
| 20260507144543 | 52 | 77 | 0.0 | 0.0 | 0.00 | 0.13 | 0.00 | 57 | 1010.7 |
| 20260507143055 | 52 | 21 | 0.0 | 0.0 | 0.00 | 0.13 | 0.00 | 59 | 1010.6 |
| 20260507141549 | 50 | 325 | 0.0 | 0.0 | 0.00 | 0.13 | 0.00 | 59 | 1010.6 |
| 20260507140036 | 50 | 91 | 0.0 | 0.0 | 0.00 | 0.13 | 0.00 | 58 | 1010.7 |
| 20260507134535 | 50 | 279 | 0.0 | 0.0 | 0.00 | 0.17 | 0.00 | 60 | 1010.8 |
| 20260507133054 | 49 | 134 | 0.0 | 0.0 | 0.00 | 0.17 | 0.00 | 68 | 1011.2 |
| 20260507131529 | 48 | 329 | 0.0 | 0.0 | 0.00 | 0.17 | 0.00 | 68 | 1011.0 |
| 20260507130025 | 47 | 309 | 0.0 | 0.0 | 0.00 | 0.17 | 0.00 | 70 | 1011.1 |
| 20260507124527 | 47 | 355 | 0.0 | 0.0 | 0.00 | 0.23 | 0.00 | 73 | 1011.1 |
| 20260507123031 | 46 | 223 | 0.0 | 0.0 | 0.00 | 0.23 | 0.00 | 82 | 1011.1 |
| 20260507121519 | 44 | 5 | 0.0 | 0.0 | 0.00 | 0.23 | 0.00 | 82 | 1011.0 |
| 20260507120018 | 43 | 329 | 0.0 | 0.0 | 0.00 | 0.23 | 0.00 | 87 | 1011.0 |
| 20260507114518 | 41 | 162 | 0.0 | 0.0 | 0.00 | 0.28 | 0.00 | 89 | 1011.1 |
| 20260507113017 | 40 | 163 | 0.0 | 0.0 | 0.00 | 0.28 | 0.00 | 94 | 1011.0 |
| 20260507111516 | 38 | 163 | 0.0 | 0.0 | 0.00 | 0.28 | 0.00 | 94 | 1010.9 |
| 20260507110014 | 38 | 286 | 0.0 | 0.0 | 0.00 | 0.28 | 0.00 | 94 | 1010.6 |
| 20260507104513 | 37 | 286 | 0.0 | 0.0 | 0.00 | 0.30 | 0.00 | 93 | 1010.6 |
| 20260507103012 | 38 | 286 | 0.0 | 0.0 | 0.00 | 0.30 | 0.00 | 92 | 1010.6 |
| 20260507101509 | 38 | 286 | 0.0 | 0.0 | 0.00 | 0.30 | 0.00 | 91 | 1010.2 |
| 20260507100006 | 39 | 286 | 0.0 | 0.0 | 0.00 | 0.30 | 0.00 | 90 | 1010.4 |
| 20260507094504 | 39 | 286 | 0.0 | 0.0 | 0.00 | 0.30 | 0.00 | 89 | 1010.3 |
| 20260507093001 | 41 | 286 | 0.0 | 0.0 | 0.00 | 0.30 | 0.00 | 88 | 1010.2 |
| 20260507091558 | 41 | 286 | 0.0 | 0.0 | 0.00 | 0.30 | 0.00 | 86 | 1009.9 |
| 20260507090057 | 42 | 287 | 0.0 | 0.0 | 0.00 | 0.30 | 0.00 | 87 | 1009.9 |
| 20260507084558 | 43 | 287 | 0.0 | 0.0 | 0.00 | 0.30 | 0.00 | 84 | 1010.1 |
| 20260507083052 | 44 | 252 | 0.0 | 0.0 | 0.00 | 0.30 | 0.00 | 84 | 1009.9 |
| 20260507081551 | 44 | 329 | 0.0 | 0.0 | 0.00 | 0.30 | 0.00 | 85 | 1010.0 |
| 20260507080049 | 44 | 88 | 0.0 | 0.0 | 0.00 | 0.30 | 0.00 | 90 | 1010.1 |
| 20260507074552 | 44 | 89 | 0.0 | 0.0 | 0.00 | 0.30 | 0.00 | 91 | 1009.9 |
| 20260507073058 | 44 | 89 | 0.0 | 0.0 | 0.00 | 0.30 | 0.00 | 92 | 1010.0 |
| 20260507071548 | 44 | 89 | 0.0 | 0.0 | 0.00 | 0.30 | 0.00 | 90 | 1010.0 |
| 20260507070056 | 44 | 87 | 0.0 | 0.0 | 0.00 | 0.30 | 0.00 | 88 | 1010.0 |
| 20260507064552 | 45 | 73 | 0.0 | 0.0 | 0.00 | 0.30 | 0.00 | 90 | 1010.0 |
| 20260507063046 | 46 | 295 | 0.0 | 0.0 | 0.00 | 0.30 | 0.00 | 88 | 1009.9 |
| 20260507061542 | 46 | 306 | 0.0 | 0.0 | 0.00 | 0.30 | 0.00 | 91 | 1009.7 |
| 20260507060048 | 45 | 146 | 0.0 | 0.0 | 0.00 | 0.30 | 0.00 | 96 | 1009.6 |
| 20260507054539 | 45 | 155 | 0.0 | 0.0 | 0.00 | 0.30 | 0.00 | 97 | 1009.4 |
| 20260507053037 | 44 | 161 | 0.0 | 0.0 | 0.00 | 0.30 | 0.00 | 97 | 1009.6 |
| 20260507051536 | 44 | 161 | 0.0 | 0.0 | 0.00 | 0.30 | 0.00 | 97 | 1009.3 |
| 20260507050036 | 44 | 161 | 0.0 | 0.0 | 0.00 | 0.30 | 0.00 | 96 | 1009.1 |
| 20260507044537 | 44 | 161 | 0.0 | 0.0 | 0.00 | 0.30 | 0.00 | 96 | 1009.3 |
| 20260507043031 | 44 | 247 | 0.0 | 0.0 | 0.00 | 0.30 | 0.00 | 96 | 1009.4 |
| 20260507041528 | 44 | 247 | 0.0 | 0.0 | 0.00 | 0.30 | 0.00 | 96 | 1009.4 |
| 20260507040024 | 44 | 247 | 0.0 | 0.0 | 0.00 | 0.30 | 0.00 | 96 | 1009.7 |
| 20260507034524 | 44 | 247 | 0.0 | 0.0 | 0.00 | 0.30 | 0.30 | 96 | 1009.5 |
| 20260507033030 | 44 | 247 | 0.0 | 0.0 | 0.00 | 0.30 | 0.30 | 95 | 1009.3 |
| 20260507031527 | 44 | 247 | 0.0 | 0.0 | 0.00 | 0.30 | 0.30 | 95 | 1009.0 |
| 20260507030019 | 45 | 247 | 0.0 | 0.0 | 0.00 | 0.30 | 0.30 | 94 | 1009.1 |
| 20260507024521 | 46 | 250 | 0.0 | 0.0 | 0.00 | 0.30 | 0.30 | 94 | 1009.4 |
| 20260507023014 | 46 | 250 | 0.0 | 0.0 | 0.00 | 0.30 | 0.30 | 93 | 1009.5 |
| 20260507021513 | 47 | 250 | 0.0 | 0.0 | 0.00 | 0.30 | 0.30 | 93 | 1009.6 |
| 20260507020012 | 47 | 250 | 0.0 | 0.0 | 0.00 | 0.30 | 0.30 | 93 | 1009.5 |
| 20260507014511 | 47 | 250 | 0.0 | 0.0 | 0.00 | 0.30 | 0.30 | 93 | 1009.8 |
| 20260507013010 | 47 | 249 | 0.0 | 0.0 | 0.00 | 0.30 | 0.30 | 93 | 1009.9 |
| 20260507011523 | 47 | 261 | 0.0 | 0.0 | 0.00 | 0.30 | 0.30 | 94 | 1009.8 |
| 20260507010006 | 48 | 263 | 0.0 | 0.0 | 0.00 | 0.30 | 0.30 | 94 | 1009.5 |
| 20260507004504 | 48 | 263 | 0.0 | 0.0 | 0.00 | 0.30 | 0.30 | 93 | 1009.4 |
| 20260507003003 | 48 | 263 | 0.0 | 0.0 | 0.00 | 0.30 | 0.30 | 93 | 1009.0 |
| 20260507001500 | 48 | 263 | 0.0 | 0.0 | 0.00 | 0.30 | 0.30 | 92 | 1008.7 |
| 20260507000059 | 48 | 273 | 0.0 | 0.0 | 0.00 | 0.30 | 0.30 | 92 | 1008.5 |
| 20260506234606 | 48 | 257 | 0.0 | 0.0 | 0.00 | 0.30 | 0.30 | 92 | 1008.5 |
| 20260506233059 | 48 | 342 | 0.0 | 0.0 | 0.00 | 0.30 | 0.30 | 92 | 1008.3 |
| 20260506231557 | 48 | 222 | 0.0 | 0.0 | 0.00 | 0.30 | 0.30 | 91 | 1008.3 |
| 20260506224600 | 48 | 122 | 0.0 | 0.0 | 0.00 | 0.30 | 0.30 | 91 | 1008.2 |
| 20260506223054 | 48 | 247 | 0.0 | 0.0 | 0.00 | 0.30 | 0.30 | 92 | 1008.0 |
| 20260506221551 | 48 | 214 | 0.0 | 0.0 | 0.00 | 0.30 | 0.30 | 94 | 1007.8 |
| 20260506220053 | 48 | 17 | 0.0 | 0.0 | 0.01 | 0.30 | 0.30 | 93 | 1007.4 |
| 20260506214549 | 49 | 113 | 0.0 | 0.0 | 0.01 | 0.30 | 0.30 | 94 | 1007.3 |
| 20260506213046 | 49 | 299 | 0.0 | 0.0 | 0.02 | 0.30 | 0.30 | 93 | 1007.1 |
| 20260506211543 | 49 | 253 | 0.0 | 0.0 | 0.02 | 0.30 | 0.30 | 94 | 1006.8 |
| 20260506210041 | 50 | 277 | 0.0 | 0.0 | 0.03 | 0.28 | 0.28 | 94 | 1006.3 |
| 20260506204542 | 50 | 249 | 0.0 | 0.0 | 0.04 | 0.28 | 0.28 | 93 | 1006.2 |
| 20260506203040 | 50 | 119 | 0.0 | 0.0 | 0.04 | 0.28 | 0.28 | 93 | 1005.9 |
| 20260506201538 | 50 | 168 | 0.0 | 0.0 | 0.04 | 0.28 | 0.28 | 92 | 1005.6 |
| 20260506200038 | 51 | 301 | 0.0 | 0.0 | 0.02 | 0.26 | 0.26 | 92 | 1005.3 |
| 20260506194528 | 53 | 246 | 0.0 | 0.0 | 0.01 | 0.25 | 0.25 | 90 | 1004.7 |
| 20260506193026 | 60 | 286 | 0.0 | 0.0 | 0.00 | 0.24 | 0.24 | 83 | 1004.0 |
| 20260506191527 | 62 | 341 | 0.0 | 0.0 | 0.00 | 0.24 | 0.24 | 89 | 1003.6 |
| 20260506190024 | 61 | 94 | 0.0 | 0.0 | 0.00 | 0.24 | 0.24 | 90 | 1003.7 |
| 20260506184526 | 61 | 140 | 0.0 | 0.0 | 0.00 | 0.24 | 0.24 | 90 | 1003.7 |
| 20260506183023 | 61 | 142 | 0.0 | 0.0 | 0.00 | 0.24 | 0.24 | 89 | 1003.7 |
| 20260506181522 | 61 | 126 | 0.0 | 0.0 | 0.00 | 0.24 | 0.24 | 91 | 1003.7 |
| 20260506180026 | 60 | 143 | 0.0 | 0.0 | 0.00 | 0.24 | 0.24 | 91 | 1003.8 |
| 20260506174520 | 60 | 144 | 0.0 | 0.0 | 0.00 | 0.24 | 0.24 | 93 | 1003.6 |
| 20260506173020 | 60 | 124 | 0.0 | 0.0 | 0.00 | 0.24 | 0.24 | 95 | 1003.6 |